Location: Melbourne
(37.8666°S, 145.1333°E)
Time: 02:31:25
(UTC+10:00)

Daily predictions for brighter satellites

Satellite Brightness Start Highest point End
(mag) Time Altitude Azimuth Time Altitude Azimuth Time Altitude Azimuth
Cosmos 2219 Rocket 4.4 02:41:49 20° E 02:41:49 20° E 02:45:05 10° SE
Cosmos 2322 Rocket 4.5 03:07:36 15° S 03:07:36 15° S 03:08:50 10° S
Cosmos 2360 Rocket 3.7 03:18:48 28° S 03:18:48 28° S 03:21:34 10° SSE
COSMOS 2428 3.4 03:21:01 50° SE 03:21:01 50° SE 03:25:17 10° SSE
CZ-4B R/B 3.8 03:25:22 54° SSE 03:25:22 54° SSE 03:30:03 10° S
USA 267 3.3 03:18:50 10° SE 03:25:25 68° NE 03:25:32 68° NE
Cosmos 2333 Rocket 3.1 03:26:50 41° ENE 03:27:27 43° ENE 03:32:54 10° SE
SL-16 R/B 2.5 03:27:12 10° SSE 03:33:29 84° E 03:33:29 84° E
Cosmos 1092 Rocket 4.0 03:33:31 78° ENE 03:33:37 78° E 03:39:51 10° S
ATLAS CENTAUR R/B 3.3 03:45:25 26° NE 03:45:25 26° NE 03:47:26 10° NE
Cosmos 2026 Rocket 4.5 03:42:12 26° NNE 03:45:38 57° E 03:51:44 10° SSE
Cosmos 1844 Rocket 2.6 03:41:41 10° SSW 03:47:22 82° ESE 03:53:00 10° NNE
NOSS 3-2 (C) 3.3 03:51:55 66° N 03:51:55 66° N 03:57:01 10° NNE
Gblst 52 Del rocket 4.5 04:02:54 51° SW 04:03:26 53° SSW 04:09:35 10° SE
GPS 2-04 Rocket1 4.0 04:06:15 30° ENE 04:06:15 30° ENE 04:08:16 10° E
Meteor 1-19 Rocket 4.5 04:00:41 10° S 04:06:33 72° E 04:12:26 10° NNE
Cosmos 2237 Rocket 2.4 04:09:45 30° N 04:12:39 69° ENE 04:18:21 10° SSE
OAO 2 Rocket 3.3 04:14:42 59° NNW 04:15:03 61° N 04:19:57 10° E
NOSS 3-4 (C) 4.5 04:13:57 36° WSW 04:15:46 41° SW 04:22:58 10° SSE
Meteor 2-4 Rocket 4.1 04:11:26 10° S 04:16:49 59° ESE 04:22:07 10° NNE
Cosmos 1844 3.5 04:14:03 10° SSW 04:19:40 70° WNW 04:25:10 10° NNE
CENTAUR R/B 2.6 04:15:51 10° SSW 04:21:49 64° SE 04:27:19 10° NE
Cosmos 1536 3.1 04:21:03 31° N 04:22:55 71° E 04:27:04 10° SSE
Tiangong 2 2.5 04:24:15 33° S 04:24:15 33° S 04:27:10 10° ESE
Cosmos 2219 Rocket 2.4 04:23:34 46° W 04:24:31 50° WSW 04:30:05 10° SSE
Cosmos 1980 3.6 04:24:55 32° NNW 04:27:42 83° WSW 04:33:27 10° SSE
RESURS DK-1 3.7 04:30:45 26° SW 04:30:45 26° SW 04:33:32 10° S
Meteor 1-11 Rocket 3.8 04:27:04 17° NNW 04:31:43 74° W 04:37:47 10° S
MOZ.5/SAFIR/RUBIN 5/SL-8 4.1 04:28:50 10° S 04:33:19 42° WSW 04:33:42 41° W
Okean 1 Rocket 3.1 04:41:20 10° N 04:45:43 79° E 04:50:08 10° S
Meteor 2-11 Rocket 4.5 04:43:41 10° SSW 04:49:44 56° W 04:55:42 10° NNW
COSMOS 2455 3.3 04:44:25 10° SSW 04:50:27 65° ESE 04:56:25 10° NE
Cosmos 1354 Rocket 3.9 04:47:18 10° SSW 04:52:36 71° WNW 04:57:51 10° N
NOAA 6 4.0 04:47:59 10° N 04:53:07 63° WNW 04:58:19 10° SSW
Cosmos 1503 Rocket 3.9 04:49:16 10° SSW 04:54:30 68° WNW 04:59:43 10° N
Cosmos 2151 Rocket 4.5 04:55:18 27° W 04:56:02 28° WSW 04:59:57 10° SSW
Cosmos 1655 Rocket 4.2 04:51:26 10° NNW 04:57:27 51° W 05:03:34 10° S
CZ-2C R/B 3.3 04:53:11 10° NNE 04:57:58 54° ESE 05:02:58 10° S
Meteor 1-23 Rocket 4.2 04:54:20 10° S 05:00:06 81° W 05:05:44 10° N
Cosmos 968 Rocket 4.5 04:57:03 10° S 05:02:14 51° ESE 05:07:18 10° NE
Cosmos 2278 Rocket 2.2 04:57:58 10° SSW 05:03:36 62° WNW 05:09:09 10° N
COSMOS 2428 4.3 05:03:03 15° WSW 05:04:26 16° SW 05:07:57 10° SSW
USA 267 4.0 05:02:09 10° SSE 05:08:07 38° SSW 05:12:54 15° W
Cosmos 1536 Rocket 4.4 05:04:54 10° SSW 05:08:44 29° W 05:12:31 10° NNW
Okean 2 3.6 05:04:43 10° S 05:08:56 75° E 05:13:02 10° NNE
Cosmos 2266 Rocket 4.0 05:04:57 10° N 05:11:18 87° W 05:17:37 10° S
Cosmos 2333 Rocket 3.3 05:08:53 18° W 05:11:51 27° WSW 05:16:44 10° S
Okean 1-7 Rocket 3.6 05:11:18 10° S 05:15:47 89° E 05:20:14 10° N
SL-16 R/B 4.1 05:12:52 10° SSW 05:16:19 15° WSW 05:18:35 13° W
Cosmos 2292 4.4 05:14:17 10° S 05:17:39 75° E 05:20:41 10° N
Okean-O 3.5 05:15:22 10° NNW 05:19:13 28° W 05:23:06 10° SW
ATLAS CENTAUR R/B 3.4 05:21:54 13° WNW 05:21:54 13° WNW 05:23:27 10° NW
IRAS Rocket 4.3 05:15:59 10° N 05:21:29 61° WNW 05:27:01 10° SSW
ERS-2 3.9 05:18:20 10° NE 05:21:49 37° ESE 05:25:19 10° S
Cosmos 2297 3.8 05:20:48 10° SSW 05:26:33 86° ESE 05:32:12 10° NNE
Shenzhou-11 Module 2.3 05:25:01 11° WSW 05:27:58 66° SSE 05:31:04 10° ENE
Cosmos 2315 Rocket 4.3 05:21:44 10° S 05:28:02 74° E 05:34:14 10° NNE
Cosmos 1743 4.5 05:25:09 10° NNE 05:28:47 38° E 05:32:27 10° SSE
Cosmos 1844 Rocket 4.3 05:28:41 10° WSW 05:30:25 11° W 05:32:09 10° WNW
SJ-12 4.0 05:26:41 10° NNE 05:30:51 88° ESE 05:35:06 10° SSW
Cosmos 1892 Rocket 4.2 05:27:40 10° S 05:32:13 63° E 05:36:41 10° NNE
Cosmos 1437 Rocket 3.1 05:28:57 10° N 05:33:03 79° E 05:37:15 10° SSE
SMAP 4.0 05:29:13 10° NNE 05:33:45 53° ESE 05:38:21 10° S
Cosmos 1455 Rocket 4.0 05:29:47 10° N 05:34:03 55° E 05:38:24 10° SSE
SL-24 R/B - RUBIN 2 4.1 05:35:38 10° NW 05:39:49 43° SW 05:44:25 10° SSE
USA 234 3.4 05:34:47 10° NE 05:41:21 84° SE 05:47:59 10° SW
GPS 2-04 Rocket1 2.6 05:40:54 10° W 05:44:22 56° N 05:47:45 10° ENE
SL-16 R/B 2.5 05:38:57 10° NW 05:44:28 50° WSW 05:50:04 10° SSE
